[[{"header":{"parameterUnit":"m.s-1","parameterCategory":1,"la1":30.2991,"la2":30.254,"lo1":-89.0895,"lo2":-89.0444,"dy":0.0017,"dx":0.0017,"nx":28,"ny":28,"refTime":"2025-04-24T21:00:00:Z","depth":0,"parameterNumber":2,"parameterNumberName":"U-component_of_WINDS"},"data":[0,0,0,0,0,0,0,0,0,0,0,0,0,0,0,0,0,0,0,0,0,0,0,0,0,0,0,0,0,0,0,0,0,0,0,0,0,0,0,0,0,0,0,0,0,0,0,0,0,0,0,0,0,0,0,0,0,0,-1.8753,-1.8754,0,-1.8846,-1.8847,-1.8849,-1.8869,-1.8868,-1.8868,-1.8867,-1.8962,-1.8965,-1.8968,0,0,0,0,0,0,0,0,0,0,0,0,0,-1.8592,-1.8595,-1.8753,-1.8754,-1.8755,-1.8846,-1.8848,-1.8849,-1.8869,-1.8868,-1.8867,-1.8867,-1.8961,-1.8965,-1.8968,0,0,0,0,0,0,0,0,0,0,0,0,0,-1.8671,-1.8596,-1.8753,-1.8776,-1.8779,-1.8846,-1.8848,-1.8849,-1.8869,-1.8868,-1.8867,-1.8866,-1.896,-1.8964,-1.8969,-1.9018,0,0,-1.8983,-1.8985,0,0,0,0,0,0,0,0,-1.8667,-1.8677,-1.8772,-1.8775,-1.8778,-1.8845,-1.8826,-1.8906,-1.8869,-1.8835,-1.8867,-1.8866,-1.8924,-1.8931,-1.8951,-1.9023,-1.9027,-1.8984,-1.8987,-1.8989,-1.899,0,0,0,0,0,0,0,-1.8661,-1.8673,-1.879,-1.8773,-1.8777,-1.8782,-1.8792,-1.8841,-1.8884,-1.8838,-1.884,-1.8851,-1.8925,-1.8947,-1.8954,-1.9028,-1.8984,-1.8988,-1.8991,-1.8993,-1.9146,-1.9147,0,0,0,0,0,0,-1.8652,-1.8669,-1.8787,-1.8793,-1.8719,-1.8786,-1.8797,-1.8825,-1.8883,-1.8891,-1.8851,-1.8851,-1.8939,-1.8948,-1.8957,-1.9019,-1.8989,-1.8993,-1.8996,-1.9145,-1.9146,-1.9148,0,0,0,0,0,0,-1.8648,-1.8662,-1.8783,-1.8731,-1.8747,-1.879,-1.882,-1.8827,-1.8848,-1.8894,-1.8901,-1.8865,-1.8938,-1.895,-1.9003,-1.9022,-1.8995,-1.9,-1.9143,-1.9145,-1.9147,-1.9142,0,0,0,0,0,0,-1.8643,-1.8661,-1.868,-1.8731,-1.875,-1.8828,-1.8821,-1.883,-1.8856,-1.8857,-1.8908,-1.8916,-1.8939,-1.8996,-1.9008,-1.9028,-1.9003,-1.9142,-1.9144,-1.9147,-1.9141,-1.9144,-1.9146,0,0,0,0,0,-1.8638,-1.8674,-1.868,-1.8695,-1.8774,-1.8829,-1.8839,-1.8865,-1.8858,-1.8877,-1.8907,-1.8914,-1.9019,-1.9001,-1.9015,-1.9037,-1.9141,-1.9144,-1.9146,-1.914,-1.9143,-1.9146,0,0,0,0,0,0,-1.8623,-1.8681,-1.8689,-1.8743,-1.8781,-1.8832,-1.8857,-1.8867,-1.8907,-1.8906,-1.8936,-1.8948,-1.8999,-1.9024,-1.9003,-1.9088,-1.9079,-1.9085,-1.907,-1.9074,-1.9076,-1.9068,-1.9007,0,0,0,0,0,-1.8626,-1.8665,-1.8715,-1.8758,-1.8776,-1.8814,-1.8838,-1.8855,-1.8895,-1.8911,-1.8944,-1.8982,-1.9024,-1.905,-1.9091,-1.9146,-1.9157,-1.9168,-1.917,-1.9172,-1.9176,-1.9207,-1.9212,-1.9157,-1.9157,-1.9157,0,0,-1.8633,-1.867,-1.8693,-1.8756,-1.8787,-1.8827,-1.8827,-1.8869,-1.8899,-1.8917,-1.8969,-1.8995,-1.904,-1.9094,-1.9119,-1.9116,-1.9194,-1.9176,-1.9177,-1.918,-1.921,-1.9215,-1.922,-1.9159,-1.9158,-1.9158,0,0,-1.8665,-1.8698,-1.8737,-1.8769,-1.8816,-1.8841,-1.885,-1.89,-1.8918,-1.8971,-1.8986,-1.9022,-1.9093,-1.9124,-1.915,-1.9196,-1.9204,-1.9209,-1.9222,-1.9251,-1.9256,-1.9259,-1.9275,-1.9281,-1.9213,-1.9213,-1.9213,0,-1.8668,-1.8728,-1.8756,-1.8798,-1.8825,-1.8845,-1.8885,-1.8914,-1.8972,-1.8991,-1.8987,-1.9077,-1.9109,-1.917,-1.9181,-1.9202,-1.9213,-1.9202,-1.9253,-1.9257,-1.9261,-1.9277,-1.9282,-1.9213,-1.9213,-1.9213,-1.9213,0,-1.8728,-1.877,-1.8797,-1.8853,-1.8883,-1.8924,-1.8959,-1.8986,-1.9001,-1.9026,-1.908,-1.912,-1.9168,-1.9185,-1.9199,-1.9249,-1.9245,-1.9247,-1.9238,-1.9266,-1.9281,-1.9287,-1.9213,-1.9213,-1.9213,-1.9213,0,0,-1.8752,-1.8824,-1.8833,-1.8859,-1.8913,-1.8946,-1.8989,-1.9037,-1.906,-1.91,-1.9136,-1.9197,-1.9199,-1.9227,-1.9246,-1.9272,-1.9306,-1.9271,-1.9272,-1.9275,-1.9363,-1.936,-1.9366,-1.9313,-1.9314,-1.9315,-1.9358,0,-1.879,-1.8865,-1.8893,-1.8955,-1.8994,-1.9014,-1.9051,-1.9088,-1.9114,-1.9151,-1.9179,-1.9221,-1.9221,-1.9239,-1.9266,-1.9296,-1.9324,-1.9294,-1.9346,-1.9347,-1.9332,-1.9374,-1.9371,-1.941,-1.9365,-1.9366,-1.9366,0,-1.8844,-1.8885,-1.8951,-1.9001,-1.9019,-1.9051,-1.9098,-1.9134,-1.9177,-1.9194,-1.9227,-1.9244,-1.9289,-1.9279,-1.9342,-1.9321,-1.9344,-1.9363,-1.9365,-1.9369,-1.9357,-1.9378,-1.9423,-1.9428,-1.9376,-1.9375,-1.9375,0,-1.8853,-1.8925,-1.8974,-1.8996,-1.9056,-1.9078,-1.9104,-1.9147,-1.9174,-1.9216,-1.9234,-1.928,-1.9305,-1.9341,-1.937,-1.9361,-1.943,-1.9423,-1.9445,-1.9444,-1.9457,-1.9455,-1.9504,-1.9475,-1.9474,-1.9474,-1.9474,0,-1.8892,-1.8931,-1.8979,-1.9009,-1.9054,-1.9085,-1.9129,-1.9157,-1.9194,-1.923,-1.9251,-1.9284,-1.9322,-1.936,-1.9384,-1.9432,-1.9443,-1.9458,-1.9463,-1.9455,-1.9453,-1.9469,-1.9467,-1.9476,-1.9476,-1.9475,-1.9475,0,-1.8909,-1.8942,-1.8997,-1.905,-1.9064,-1.9095,-1.914,-1.917,-1.9197,-1.9242,-1.9255,-1.9297,-1.9344,-1.9377,-1.9437,-1.9453,-1.9504,-1.951,-1.9489,-1.9491,-1.9511,-1.9508,-1.9571,-1.9581,-1.9545,-1.9546,-1.9546,0,-1.893,-1.8961,-1.9017,-1.9043,-1.9069,-1.911,-1.9139,-1.9172,-1.9201,-1.9253,-1.9277,-1.9325,-1.9364,-1.9437,-1.9474,-1.952,-1.9526,-1.9545,-1.9533,-1.9524,-1.9525,-1.9522,-1.9525,-1.9546,-1.9546,-1.9547,-1.9547,0,-1.8965,-1.898,-1.902,-1.9067,-1.9101,-1.9139,-1.9177,-1.9197,-1.9237,-1.9269,-1.9317,-1.9347,-1.9409,-1.9456,-1.9506,-1.9533,-1.9546,-1.9551,-1.9558,-1.9549,-1.9535,-1.9542,-1.9492,-1.9548,-1.9548,-1.9548,-1.9548,-1.9548,-1.8984,-1.9012,-1.9056,-1.9101,-1.9134,-1.9169,-1.92,-1.9232,-1.9272,-1.9324,-1.9342,-1.9391,-1.9435,-1.9504,-1.9532,-1.9571,-1.957,-1.9581,-1.9583,-1.9585,-1.9584,-1.953,-1.958,-1.958,-1.958,-1.958,-1.958,0,-1.9018,-1.9048,-1.9089,-1.9142,-1.9177,-1.9188,-1.9232,-1.9261,-1.9304,-1.9344,-1.9383,-1.9438,-1.9484,-1.9525,-1.9573,-1.9596,-1.9604,-1.9608,-1.9606,-1.9612,-1.9582,-1.9571,-1.9601,-1.9601,-1.9601,-1.9601,-1.9601,-1.9601,-1.904,-1.9089,-1.911,-1.9175,-1.9205,-1.9253,-1.9277,-1.931,-1.9342,-1.9403,-1.9442,-1.9468,-1.9509,-1.956,-1.9603,-1.9614,-1.963,-1.9633,-1.9645,-1.9616,-1.9614,-1.9611,-1.96,-1.9636,-1.9636,-1.9671,-1.9671,-1.9671]},{"header":{"parameterUnit":"m.s-1","parameterCategory":1,"la1":30.2991,"la2":30.254,"lo1":-89.0895,"lo2":-89.0444,"dy":0.0017,"dx":0.0017,"nx":28,"ny":28,"refTime":"2025-04-24T21:00:00:Z","depth":0,"parameterNumber":3,"parameterNumberName":"V-component_of_WINDS"},"data":[0,0,0,0,0,0,0,0,0,0,0,0,0,0,0,0,0,0,0,0,0,0,0,0,0,0,0,0,0,0,0,0,0,0,0,0,0,0,0,0,0,0,0,0,0,0,0,0,0,0,0,0,0,0,0,0,0,0,2.5927,2.5926,0,2.5856,2.5855,2.5854,2.5865,2.5867,2.5868,2.5869,2.5793,2.579,2.5787,0,0,0,0,0,0,0,0,0,0,0,0,0,2.6071,2.6069,2.5927,2.5926,2.5925,2.5856,2.5855,2.5854,2.5865,2.5867,2.5868,2.587,2.5794,2.579,2.5786,0,0,0,0,0,0,0,0,0,0,0,0,0,2.6005,2.6068,2.5927,2.5923,2.5922,2.5856,2.5855,2.5854,2.5865,2.5867,2.5869,2.587,2.5795,2.5791,2.5786,2.572,0,0,2.5771,2.5769,0,0,0,0,0,0,0,0,2.6009,2.6,2.5924,2.5923,2.5922,2.5872,2.5878,2.5809,2.5864,2.5886,2.5869,2.5871,2.5817,2.5811,2.5793,2.5716,2.5713,2.5771,2.5768,2.5766,2.5765,0,0,0,0,0,0,0,2.6013,2.6003,2.5899,2.5923,2.5921,2.5924,2.5916,2.5865,2.5842,2.5885,2.5885,2.5877,2.5817,2.5798,2.5792,2.5712,2.5771,2.5767,2.5764,2.5762,2.5579,2.5577,0,0,0,0,0,0,2.602,2.6007,2.5901,2.5897,2.5971,2.592,2.5911,2.5886,2.5843,2.5838,2.5875,2.5878,2.5805,2.5797,2.5789,2.571,2.5766,2.5762,2.5759,2.5581,2.5578,2.5576,0,0,0,0,0,0,2.6023,2.601,2.5904,2.5952,2.5939,2.5915,2.5886,2.5883,2.5864,2.5836,2.5832,2.586,2.5806,2.5796,2.5738,2.5707,2.576,2.5755,2.5583,2.558,2.5577,2.5551,0,0,0,0,0,0,2.6027,2.6011,2.5986,2.5951,2.5936,2.5854,2.5884,2.5881,2.5857,2.5859,2.5821,2.5816,2.5807,2.5745,2.5733,2.5702,2.5751,2.5586,2.5582,2.5578,2.5554,2.5547,2.5541,0,0,0,0,0,2.6032,2.598,2.5985,2.5972,2.5904,2.5852,2.5843,2.5835,2.5854,2.5828,2.5811,2.5817,2.5713,2.5739,2.5725,2.5693,2.5588,2.5583,2.5579,2.5557,2.5548,2.5541,0,0,0,0,0,0,2.601,2.5975,2.598,2.5916,2.5887,2.5854,2.5822,2.5826,2.579,2.5794,2.5784,2.5775,2.5717,2.5699,2.5728,2.5627,2.5653,2.5646,2.5641,2.5633,2.5626,2.5631,2.5748,0,0,0,0,0,2.5998,2.596,2.5931,2.5877,2.5863,2.5845,2.5822,2.5818,2.5788,2.5775,2.5753,2.5722,2.5683,2.5657,2.5619,2.5552,2.5544,2.5523,2.5517,2.5511,2.5505,2.547,2.546,2.5561,2.5561,2.5561,0,0,2.5972,2.5949,2.5925,2.5872,2.585,2.581,2.5834,2.579,2.5761,2.5768,2.5712,2.5695,2.5661,2.5598,2.557,2.5582,2.5476,2.5506,2.5502,2.5498,2.5464,2.5454,2.5446,2.5558,2.5559,2.5559,0,0,2.5905,2.5883,2.5836,2.5814,2.578,2.5769,2.5758,2.5725,2.5714,2.5659,2.5664,2.5628,2.556,2.5536,2.5514,2.5441,2.5446,2.5428,2.5394,2.536,2.5352,2.5345,2.5319,2.531,2.5422,2.5422,2.5422,0,2.5877,2.5817,2.5811,2.5768,2.5745,2.5752,2.5705,2.5683,2.5638,2.5622,2.5636,2.5552,2.5529,2.5462,2.5445,2.5427,2.5414,2.5432,2.5354,2.5346,2.534,2.5315,2.5305,2.542,2.542,2.5421,2.5421,0,2.5785,2.5744,2.571,2.5669,2.5642,2.5596,2.5584,2.5557,2.5557,2.5544,2.5488,2.5461,2.5419,2.5402,2.54,2.5335,2.5344,2.5356,2.5381,2.5328,2.5305,2.5296,2.5418,2.5418,2.5419,2.5419,0,0,2.57,2.5658,2.5645,2.5627,2.5592,2.5559,2.5515,2.5475,2.5453,2.5422,2.5385,2.5328,2.534,2.5316,2.5312,2.5282,2.5226,2.5298,2.5297,2.5286,2.5154,2.5145,2.5134,2.523,2.5228,2.5227,2.5157,0,2.563,2.5552,2.5546,2.5476,2.5438,2.5446,2.5407,2.5381,2.5368,2.5335,2.5321,2.5281,2.5299,2.5285,2.5256,2.5239,2.52,2.5244,2.5195,2.5193,2.5203,2.5122,2.5112,2.5047,2.5148,2.5146,2.5145,0,2.5536,2.5505,2.5431,2.5403,2.5387,2.5352,2.5316,2.5284,2.5255,2.5248,2.5223,2.5223,2.5177,2.5205,2.5143,2.5173,2.5153,2.5142,2.514,2.5134,2.5166,2.5115,2.5027,2.5017,2.5131,2.5132,2.5133,0,2.5483,2.5422,2.537,2.5355,2.532,2.5296,2.528,2.5253,2.523,2.5198,2.5183,2.5146,2.5126,2.5097,2.5088,2.5109,2.5026,2.5053,2.5019,2.5019,2.5,2.5001,2.4908,2.4987,2.4987,2.4988,2.4988,0,2.5404,2.5359,2.5346,2.5314,2.5264,2.5259,2.5209,2.5195,2.5171,2.5137,2.514,2.5108,2.5098,2.5063,2.5056,2.5006,2.4996,2.499,2.4988,2.4989,2.499,2.4975,2.4979,2.4985,2.4986,2.4986,2.4986,0,2.5335,2.5325,2.5269,2.5242,2.5234,2.5198,2.5175,2.5144,2.5134,2.509,2.508,2.5062,2.5022,2.5011,2.4962,2.4957,2.4899,2.4901,2.4909,2.4909,2.4876,2.4879,2.4769,2.4755,2.4844,2.4843,2.4842,0,2.5286,2.5252,2.5221,2.5199,2.5183,2.5147,2.5124,2.5118,2.5094,2.506,2.5034,2.4995,2.4963,2.49,2.4882,2.4846,2.4848,2.4812,2.4842,2.4845,2.4848,2.485,2.4847,2.4806,2.4805,2.4804,2.4803,0,2.52,2.5197,2.5164,2.513,2.5103,2.5076,2.5049,2.5031,2.5021,2.4994,2.4954,2.493,2.4882,2.4843,2.4807,2.4791,2.4795,2.4794,2.4785,2.4785,2.4792,2.4788,2.4894,2.4797,2.4797,2.4798,2.4798,2.4798,2.5139,2.511,2.5084,2.5048,2.5028,2.5004,2.4975,2.4961,2.4928,2.489,2.4888,2.4845,2.4819,2.4771,2.4753,2.4719,2.4729,2.4715,2.4711,2.4708,2.4706,2.4797,2.4712,2.4712,2.4713,2.4713,2.4713,0,2.5054,2.5038,2.5005,2.4969,2.4941,2.495,2.4922,2.4898,2.486,2.4836,2.4806,2.4761,2.4724,2.4705,2.4669,2.4646,2.4647,2.4636,2.4638,2.4634,2.4698,2.471,2.4636,2.4636,2.4636,2.4636,2.4636,2.4636,2.5006,2.4957,2.4951,2.4893,2.4878,2.4837,2.482,2.4798,2.4779,2.4729,2.4699,2.4688,2.4665,2.4628,2.4595,2.4591,2.4577,2.4565,2.4562,2.4622,2.4629,2.4637,2.4649,2.4562,2.4562,2.4501,2.45,2.45]}]]